SCP
0 0 0 0 0 0 -0 0 0 0 0 -0 0 0 0 0 0 0 0 0 0 0 0 0 0 0 0 0 0 0 0 0 0 0 0 0 0 0 0 0 0 0 0 0
0 0 0 0 -0 0 0 0 0 0 0 0 0 0 0 0 0 0 0 0 0 0 0 0 0 0 0 0 0 0 0 0 0 0 0 0 0 0 0 0 0 0 0 0
-0 0 0 0 0 0 0 0 0 0 0 0 0 0 0 0 0 0 0 0 0 0 0 0 0 0 0 0 0 0 0 0 0 0 0 0 0 0 0 0 0 0 0 0
-0 0 0 0 0 0 0 0 0 0 0 0 0 0 0 0 0 0 0 0 0 0 0 0 0 0 0 0 0 0 0 0 0 0 0 0 0 0 0 0 0 0 0 0
0 0 0 0 0 0 0 0 0 0 0 0 0 0 0 0 0 0 0 0 0 0 0 0 0 0 0 0 0 0 0 0 0 0 0 0 0 0 0 0 0 0 0 0
0 0 0 0 -0 0 0 0 0 0 0 0 0 0 0 0 0 0 0 0 0 0 0 0 0 0 0 0 0 0 0 0 0 0 0 0 0 0 0 0 0 0 0 0
0 0 0 0 0 0 0 1 0 0 0 0 0 0 0 0 0 0 0 0 0 0 0 0 0 0 0 0 0 0 0 0 0 0 0 0 0 0 0 0 0 0 0 0
0 0 0 0 0 0 0 0 0 0 0 -0 0 0 0 0 0 0 0 0 0 0 0 0 0 0 0 0 0 0 0 0 0 0 0 0 0 0 0 0 0 0 0 0
1 0 0 0 0 0 0 -0 0 0 0 -0 0 0 0 0 0 0 0 0 0 0 0 0 0 0 0 0 0 0 0 0 0 0 0 0 0 0 0 0 0 0 0 0
0 0 0 -0 0 0 0 0 0 0 0 0 0 0 0 0 0 0 0 0 0 0 0 0 0 0 0 0 0 0 0 0 0 0 0 0 0 0 0 0 0 0 0 0
0 -0 0 0 0 0 0 0 0 0 0 0 0 0 0 0 0 0 0 0 0 0 0 0 0 0 0 0 0 0 0 0 0 0 0 0 0 0 0 0 0 0 0 0
0 0 0 0 0 0 0 0 0 0 0 0 0 0 0 0 0 0 0 0 0 0 0 0 0 0 0 0 0 0 0 0 0 0 0 0 0 0 0 0 0 0 0 0
1 0 0 0 0 0 0 0 0 0 0 0 0 0 0 0 0 0 0 0 0 0 0 0 0 0 0 0 0 0 0 0 0 0 0 0 0 0 0 0 0 0 0 0
0 0 0 0 0 0 0 0 0 0 0 0 0 0 0 0 0 0 0 0 0 0 0 0 0 0 0 0 0 0 0 0 0 0 0 0 0 0 0 0 0 0 0 0
0 0 0 0 0 0 0 0 0 0 0 0 0 0 0 0 0 0 0 0 0 0 0 0 0 0 0 0 0 0 0 0 0 0 0 0 0 0 0 0 0 0 0 0
0 0 0 0 0 0 0 0 0 0 0 0 0 0 0 0 0 0 0 0 0 0 0 0 0 0 0 0 0 0 0 0 0 0 0 0 0 0 0 0 0 0 0 0
0 0 0 0 0 0 0 0 0 0 0 0 0 0 0 0 0 0 0 0 0 0 0 0 0 0 0 0 0 0 0 0 0 -0 0 0 0 0 0 0 0 0 0 0
0 0 0 0 0 0 0 0 0 0 0 0 0 0 0 0 0 0 0 0 0 0 0 0 0 0 0 0 0 0 0 0 0 0 0 0 0 0 0 0 0 0 0 0
0 0 0 0 0 0 0 0 0 0 0 0 0 0 0 0 0 0 0 0 0 0 0 0 0 0 0 0 0 0 0 0 0 0 0 0 0 0 0 0 0 0 0 0
0 0 -0 -0 -0 0 0 0 0 0 0 0 0 0 0 0 0 0 0 0 0 0 0 0 0 0 0 0 0 -0 0 0 0 0 0 0 0 0 0 0 0 0 0 0
0 0 -0 -0 -0 -0 -0 0 0 0 -0 -0 -0 -0 0 0 0 0 0 0 0 0 0 0 0 0 0 0 -0 0 0 0 0 0 0 0 0 0 0 0 0 0 0 0
0 0 0 -0 -0 -0 -0 -0 0 0 -0 -0 0 0 0 0 0 0 0 0 0 0 0 0 0 0 0 -0 0 0 0 0 0 0 0 0 0 0 0 0 0 0 0 0
0 0 0 0 0 0 0 0 -0 -0 -0 -0 0 0 0 0 0 0 0 0 0 0 0 0 0 0 -0 -0 -0 -0 0 0 0 0 0 0 0 0 0 0 0 0 0 0
0 0 0 0 0 0 0 0 0 0 0 0 0 0 0 0 0 0 0 0 0 0 0 0 0 0 -0 -0 -0 0 0 0 0 0 0 0 0 0 0 0 0 0 0 0
0 0 0 0 0 0 0 0 -0 0 0 0 0 0 0 0 0 0 0 0 0 0 0 0 0 0 0 0 -0 0 0 0 0 0 0 0 0 0 0 0 0 0 0 0
0 0 0 0 0 0 0 0 0 0 0 0 0 0 0 0 0 0 0 0 0 0 0 0 0 0 0 0 0 0 0 0 0 0 0 0 0 0 0 0 0 0 0 0
0 0 0 0 0 0 0 0 0 0 0 0 0 0 0 0 0 0 0 0 0 0 0 0 0 0 0 0 0 0 0 0 0 0 0 0 0 0 0 0 0 0 0 0
Wind_Speed_500mb
39 37 27 34 34 39 37 20 12 10 4 33 23 22 28 38 40 42 43 40 37 32 29 28 24 21 19 16 14 10 4 4 5 7 11 14 20 18 22 24 28 28 29 32
38 29 29 18 25 12 8 16 10 9 17 25 27 34 33 39 39 42 41 38 34 31 29 27 24 21 19 18 13 7 6 3 3 10 5 15 15 17 22 29 32 29 25 28
33 38 26 24 26 24 15 5 2 7 21 22 12 23 32 39 40 41 38 37 35 30 27 26 23 21 22 19 17 8 1 1 2 4 5 15 15 20 27 30 31 31 31 29
22 13 6 33 18 19 13 7 14 2 20 20 22 16 25 36 38 37 38 36 33 28 27 24 22 20 20 20 16 12 3 3 6 9 9 12 12 20 24 27 29 32 29 28
14 5 10 15 29 18 4 16 11 17 25 28 25 20 16 25 36 35 37 34 32 28 28 26 22 20 19 18 14 11 8 6 5 10 12 12 15 22 29 29 30 30 26 23
20 17 21 22 40 5 7 15 13 21 26 34 27 15 17 37 39 38 37 37 34 32 30 25 22 20 19 16 14 12 9 11 11 10 14 14 17 26 29 32 31 31 25 23
19 10 6 12 14 10 9 1 21 22 34 36 14 12 47 47 41 43 40 38 36 33 29 26 20 19 16 13 14 13 12 15 13 14 14 13 25 24 33 31 30 25 22 23
16 16 11 8 16 8 7 3 18 16 33 39 37 37 44 47 48 45 41 39 35 33 30 24 19 17 15 13 9 10 17 15 13 12 13 17 21 22 30 27 33 27 22 21
8 6 31 49 27 16 14 12 11 21 29 44 37 40 43 45 43 40 40 37 33 32 31 24 19 12 13 11 13 8 17 12 13 15 15 12 17 17 21 21 21 28 22 29
13 17 32 61 10 9 9 14 14 24 29 38 38 41 44 42 41 38 34 34 32 33 28 26 18 14 9 4 6 7 12 7 10 9 11 13 9 13 18 22 22 23 25 25
13 27 39 29 16 18 15 17 20 24 29 30 38 38 39 37 37 34 33 31 30 28 32 25 13 20 14 4 3 6 7 4 3 6 8 6 6 4 15 16 20 22 22 24
15 32 24 32 24 19 20 21 23 32 31 31 34 35 35 36 34 34 32 29 26 23 26 21 16 19 11 5 2 5 3 2 4 8 10 11 11 14 16 15 25 21 22 20
17 27 41 35 26 23 25 25 28 28 29 32 31 32 33 36 35 33 33 28 28 20 15 18 21 13 11 5 5 5 4 5 6 5 11 7 10 12 14 18 22 24 26 23
36 39 36 27 31 26 28 26 27 26 27 29 31 34 36 37 37 33 30 24 20 22 21 13 16 14 12 5 6 11 8 5 8 12 7 13 8 10 19 20 22 25 21 21
21 23 28 34 30 30 29 29 29 29 30 31 35 38 39 38 36 31 25 25 24 18 10 10 15 23 15 8 7 12 7 5 9 10 9 8 17 13 15 17 21 24 18 21
35 38 36 34 30 28 29 29 30 31 32 32 35 34 35 32 32 29 28 23 19 15 12 4 10 6 5 11 7 9 4 5 4 3 7 8 11 15 20 21 20 22 21 9
44 40 40 34 32 29 30 28 29 32 33 35 36 35 33 34 33 30 25 20 19 19 15 8 12 8 6 11 11 12 12 12 6 6 11 11 12 17 18 23 21 29 9 15
29 30 29 35 36 33 30 29 32 34 36 35 37 35 34 35 34 31 30 25 22 15 8 2 3 7 5 9 6 13 11 12 12 10 14 17 14 17 22 19 22 27 14 17
23 29 33 33 34 34 33 33 34 34 35 36 35 34 33 32 34 29 23 19 20 13 9 4 4 9 6 8 9 7 9 10 8 15 13 19 23 18 24 16 22 20 12 14
30 34 36 36 35 36 36 36 37 37 36 36 34 35 32 30 30 30 23 15 12 12 13 11 4 0 5 14 13 13 15 4 9 11 13 17 13 15 16 20 14 9 10 12
38 41 39 41 39 37 37 41 41 40 37 36 37 35 32 32 30 26 21 19 16 16 11 11 5 7 11 9 6 5 15 11 8 13 9 12 11 13 16 17 16 17 17 16
45 45 42 41 43 41 40 41 39 40 38 37 34 32 35 27 28 21 18 16 16 9 10 7 8 12 13 13 2 7 4 5 8 2 6 10 12 14 15 14 16 16 15 17
47 46 45 44 45 46 43 41 39 39 38 36 35 34 29 28 26 27 20 12 13 8 7 15 13 11 25 15 4 1 3 2 5 7 5 9 12 12 10 14 11 12 13 16
51 49 48 47 48 48 45 41 39 37 35 33 32 31 28 26 20 15 17 17 14 11 11 10 8 18 24 9 4 2 4 5 4 4 7 5 10 13 16 13 12 13 14 18
53 52 52 52 50 45 44 41 38 35 33 30 29 30 25 18 22 23 17 20 16 14 10 4 10 21 12 5 12 6 7 7 2 4 8 13 8 11 13 13 12 16 12 26
56 53 50 47 42 43 40 41 34 33 31 29 28 28 24 23 23 23 21 17 13 23 14 10 3 7 7 7 4 2 2 7 2 4 4 6 12 8 11 14 14 14 16 26
47 48 46 41 39 39 37 38 34 32 31 27 29 24 12 24 26 30 22 16 15 11 12 11 13 10 13 9 13 16 13 12 12 9 10 13 14 11 13 16 10 11 9 15
Wind_Direction_500mb
253 263 271 273 206 224 244 243 252 298 342 196 155 160 173 159 160 165 170 174 168 167 166 169 167 171 170 162 156 181 122 56 26 34 22 0 4 0 3 352 347 350 9 353
258 245 252 167 247 226 233 272 303 314 49 101 130 148 164 162 172 174 178 179 170 171 172 174 172 173 176 167 164 216 5 84 9 30 0 351 347 339 341 339 348 357 -0 353
244 256 227 239 225 215 211 246 329 325 103 116 136 154 165 165 179 179 183 178 171 175 174 175 174 173 180 174 168 217 34 189 242 317 314 330 341 334 338 335 346 354 4 352
251 58 274 345 27 26 15 343 1 106 140 121 133 164 174 176 180 182 177 171 169 171 169 171 173 173 177 176 172 197 251 220 231 273 306 328 344 324 330 339 342 350 358 355
256 73 16 322 321 343 335 299 308 272 125 123 130 148 171 178 168 172 166 167 165 169 168 168 168 170 175 177 178 188 244 245 243 272 304 309 312 323 340 335 338 353 354 346
259 224 182 204 220 352 342 251 318 240 132 130 146 187 182 165 157 157 157 162 158 162 161 164 166 173 176 181 189 195 208 266 249 266 291 306 309 325 341 341 340 344 355 353
232 229 275 119 121 152 193 169 33 78 127 135 136 70 130 142 148 151 155 152 157 157 160 166 167 166 173 187 197 204 228 231 265 258 272 299 309 326 336 341 351 358 4 8
214 201 233 130 143 190 90 95 97 110 124 112 120 126 128 138 143 146 151 152 155 156 160 163 157 155 160 177 178 201 219 243 253 265 291 294 308 322 337 347 350 9 15 3
100 139 315 311 73 89 91 98 112 136 138 135 138 140 143 143 146 152 154 155 159 161 158 163 157 190 202 212 220 202 239 263 275 282 281 301 322 329 332 340 353 355 354 354
137 199 182 249 130 120 129 130 134 138 147 140 145 147 145 148 149 153 155 158 161 163 162 173 181 170 224 194 189 187 232 254 286 296 302 297 288 331 333 343 349 347 347 339
126 180 181 157 161 144 130 136 133 140 140 142 147 151 151 152 153 156 155 160 165 170 179 176 181 184 222 214 226 193 223 235 340 304 329 360 339 348 342 335 326 331 341 331
62 123 96 135 136 146 145 140 140 138 140 146 151 152 152 152 156 156 156 158 160 166 162 170 185 205 248 197 236 211 197 346 291 261 277 320 314 331 334 336 337 339 349 354
89 83 110 116 124 132 134 139 142 144 145 148 149 152 153 151 155 156 156 158 162 165 183 182 187 214 216 182 258 222 233 280 263 22 0 359 355 330 337 333 334 336 327 335
106 111 109 125 130 132 136 136 139 139 145 150 149 150 149 152 152 155 159 163 164 165 173 197 211 224 205 211 183 254 316 3 196 314 280 332 346 358 342 334 332 325 320 330
110 126 127 130 131 134 136 141 141 143 146 140 146 147 148 150 155 160 159 156 146 150 162 207 214 213 219 240 220 227 318 309 298 311 284 318 337 333 324 322 331 342 331 348
132 132 134 134 141 143 143 149 148 149 148 149 150 153 155 155 156 154 150 154 160 165 158 228 149 174 257 268 221 220 255 207 29 357 302 308 320 324 342 2 343 342 331 15
140 140 141 143 150 156 151 155 154 155 157 156 155 155 156 156 152 149 157 146 158 154 177 205 235 215 217 236 189 225 218 265 276 291 302 298 303 326 330 322 329 337 307 308
146 143 144 164 162 155 154 157 158 159 159 158 156 157 159 160 158 153 148 157 160 164 203 292 136 135 190 243 293 223 222 238 276 290 288 284 283 298 316 336 331 324 319 356
150 145 160 164 159 159 159 159 159 160 160 160 160 162 164 164 159 166 168 183 171 162 195 168 113 166 206 232 285 247 261 252 253 271 308 301 292 284 332 319 326 339 1 8
158 154 156 154 156 159 159 160 159 160 161 162 162 161 160 161 158 164 171 185 189 195 221 209 263 309 295 311 312 204 239 275 241 260 300 311 315 336 324 325 338 4 10 358
154 152 152 154 156 157 160 160 161 160 163 165 165 166 168 163 167 171 180 190 194 210 207 235 254 263 299 254 234 248 277 238 239 284 307 313 314 349 351 350 356 1 1 358
151 151 154 155 154 155 158 162 163 162 164 166 167 167 164 165 174 185 186 203 205 227 232 240 233 238 266 197 202 42 262 237 268 331 28 2 358 356 358 356 349 352 346 352
152 155 155 156 156 155 157 161 163 165 167 168 169 169 169 170 181 180 187 198 209 203 169 227 255 282 158 150 116 277 149 102 36 27 33 4 8 359 4 352 348 351 340 345
154 155 155 156 157 155 157 163 164 165 167 171 174 176 174 170 175 188 189 205 206 175 170 247 276 170 164 154 57 166 158 116 111 29 24 16 338 5 2 348 322 355 342 341
153 154 156 157 156 158 161 162 161 164 167 171 174 178 174 187 197 191 219 203 207 187 180 20 160 175 165 41 20 214 156 147 317 297 292 310 338 334 326 328 324 319 306 332
154 155 159 161 158 162 163 164 166 168 171 176 186 200 197 198 211 208 174 183 188 174 196 245 61 179 191 309 283 355 222 293 311 232 280 269 306 308 345 346 344 338 326 332
154 156 159 156 161 162 165 166 169 172 177 179 182 194 200 183 182 184 182 180 184 186 220 246 219 262 239 241 267 263 253 258 242 229 261 309 274 252 285 299 329 337 342 338
Wind_Speed_850mb
39 37 27 34 34 39 37 20 12 10 4 33 23 22 28 38 40 42 43 40 37 32 29 28 24 21 19 16 14 10 4 4 5 7 11 14 20 18 22 24 28 28 29 32
38 29 29 18 25 12 8 16 10 9 17 25 27 34 33 39 39 42 41 38 34 31 29 27 24 21 19 18 13 7 6 3 3 10 5 15 15 17 22 29 32 29 25 28
33 38 26 24 26 24 15 5 2 7 21 22 12 23 32 39 40 41 38 37 35 30 27 26 23 21 22 19 17 8 1 1 2 4 5 15 15 20 27 30 31 31 31 29
22 13 6 33 18 19 13 7 14 2 20 20 22 16 25 36 38 37 38 36 33 28 27 24 22 20 20 20 16 12 3 3 6 9 9 12 12 20 24 27 29 32 29 28
14 5 10 15 29 18 4 16 11 17 25 28 25 20 16 25 36 35 37 34 32 28 28 26 22 20 19 18 14 11 8 6 5 10 12 12 15 22 29 29 30 30 26 23
20 17 21 22 40 5 7 15 13 21 26 34 27 15 17 37 39 38 37 37 34 32 30 25 22 20 19 16 14 12 9 11 11 10 14 14 17 26 29 32 31 31 25 23
19 10 6 12 14 10 9 1 21 22 34 36 14 12 47 47 41 43 40 38 36 33 29 26 20 19 16 13 14 13 12 15 13 14 14 13 25 24 33 31 30 25 22 23
16 16 11 8 16 8 7 3 18 16 33 39 37 37 44 47 48 45 41 39 35 33 30 24 19 17 15 13 9 10 17 15 13 12 13 17 21 22 30 27 33 27 22 21
8 6 31 49 27 16 14 12 11 21 29 44 37 40 43 45 43 40 40 37 33 32 31 24 19 12 13 11 13 8 17 12 13 15 15 12 17 17 21 21 21 28 22 29
13 17 32 61 10 9 9 14 14 24 29 38 38 41 44 42 41 38 34 34 32 33 28 26 18 14 9 4 6 7 12 7 10 9 11 13 9 13 18 22 22 23 25 25
13 27 39 29 16 18 15 17 20 24 29 30 38 38 39 37 37 34 33 31 30 28 32 25 13 20 14 4 3 6 7 4 3 6 8 6 6 4 15 16 20 22 22 24
15 32 24 32 24 19 20 21 23 32 31 31 34 35 35 36 34 34 32 29 26 23 26 21 16 19 11 5 2 5 3 2 4 8 10 11 11 14 16 15 25 21 22 20
17 27 41 35 26 23 25 25 28 28 29 32 31 32 33 36 35 33 33 28 28 20 15 18 21 13 11 5 5 5 4 5 6 5 11 7 10 12 14 18 22 24 26 23
36 39 36 27 31 26 28 26 27 26 27 29 31 34 36 37 37 33 30 24 20 22 21 13 16 14 12 5 6 11 8 5 8 12 7 13 8 10 19 20 22 25 21 21
21 23 28 34 30 30 29 29 29 29 30 31 35 38 39 38 36 31 25 25 24 18 10 10 15 23 15 8 7 12 7 5 9 10 9 8 17 13 15 17 21 24 18 21
35 38 36 34 30 28 29 29 30 31 32 32 35 34 35 32 32 29 28 23 19 15 12 4 10 6 5 11 7 9 4 5 4 3 7 8 11 15 20 21 20 22 21 9
44 40 40 34 32 29 30 28 29 32 33 35 36 35 33 34 33 30 25 20 19 19 15 8 12 8 6 11 11 12 12 12 6 6 11 11 12 17 18 23 21 29 9 15
29 30 29 35 36 33 30 29 32 34 36 35 37 35 34 35 34 31 30 25 22 15 8 2 3 7 5 9 6 13 11 12 12 10 14 17 14 17 22 19 22 27 14 17
23 29 33 33 34 34 33 33 34 34 35 36 35 34 33 32 34 29 23 19 20 13 9 4 4 9 6 8 9 7 9 10 8 15 13 19 23 18 24 16 22 20 12 14
30 34 36 36 35 36 36 36 37 37 36 36 34 35 32 30 30 30 23 15 12 12 13 11 4 0 5 14 13 13 15 4 9 11 13 17 13 15 16 20 14 9 10 12
38 41 39 41 39 37 37 41 41 40 37 36 37 35 32 32 30 26 21 19 16 16 11 11 5 7 11 9 6 5 15 11 8 13 9 12 11 13 16 17 16 17 17 16
45 45 42 41 43 41 40 41 39 40 38 37 34 32 35 27 28 21 18 16 16 9 10 7 8 12 13 13 2 7 4 5 8 2 6 10 12 14 15 14 16 16 15 17
47 46 45 44 45 46 43 41 39 39 38 36 35 34 29 28 26 27 20 12 13 8 7 15 13 11 25 15 4 1 3 2 5 7 5 9 12 12 10 14 11 12 13 16
51 49 48 47 48 48 45 41 39 37 35 33 32 31 28 26 20 15 17 17 14 11 11 10 8 18 24 9 4 2 4 5 4 4 7 5 10 13 16 13 12 13 14 18
53 52 52 52 50 45 44 41 38 35 33 30 29 30 25 18 22 23 17 20 16 14 10 4 10 21 12 5 12 6 7 7 2 4 8 13 8 11 13 13 12 16 12 26
56 53 50 47 42 43 40 41 34 33 31 29 28 28 24 23 23 23 21 17 13 23 14 10 3 7 7 7 4 2 2 7 2 4 4 6 12 8 11 14 14 14 16 26
47 48 46 41 39 39 37 38 34 32 31 27 29 24 12 24 26 30 22 16 15 11 12 11 13 10 13 9 13 16 13 12 12 9 10 13 14 11 13 16 10 11 9 15
Wind_Direction_850mb
253 263 271 273 206 224 244 243 252 298 342 196 155 160 173 159 160 165 170 174 168 167 166 169 167 171 170 162 156 181 122 56 26 34 22 0 4 0 3 352 347 350 9 353
258 245 252 167 247 226 233 272 303 314 49 101 130 148 164 162 172 174 178 179 170 171 172 174 172 173 176 167 164 216 5 84 9 30 0 351 347 339 341 339 348 357 -0 353
244 256 227 239 225 215 211 246 329 325 103 116 136 154 165 165 179 179 183 178 171 175 174 175 174 173 180 174 168 217 34 189 242 317 314 330 341 334 338 335 346 354 4 352
251 58 274 345 27 26 15 343 1 106 140 121 133 164 174 176 180 182 177 171 169 171 169 171 173 173 177 176 172 197 251 220 231 273 306 328 344 324 330 339 342 350 358 355
256 73 16 322 321 343 335 299 308 272 125 123 130 148 171 178 168 172 166 167 165 169 168 168 168 170 175 177 178 188 244 245 243 272 304 309 312 323 340 335 338 353 354 346
259 224 182 204 220 352 342 251 318 240 132 130 146 187 182 165 157 157 157 162 158 162 161 164 166 173 176 181 189 195 208 266 249 266 291 306 309 325 341 341 340 344 355 353
232 229 275 119 121 152 193 169 33 78 127 135 136 70 130 142 148 151 155 152 157 157 160 166 167 166 173 187 197 204 228 231 265 258 272 299 309 326 336 341 351 358 4 8
214 201 233 130 143 190 90 95 97 110 124 112 120 126 128 138 143 146 151 152 155 156 160 163 157 155 160 177 178 201 219 243 253 265 291 294 308 322 337 347 350 9 15 3
100 139 315 311 73 89 91 98 112 136 138 135 138 140 143 143 146 152 154 155 159 161 158 163 157 190 202 212 220 202 239 263 275 282 281 301 322 329 332 340 353 355 354 354
137 199 182 249 130 120 129 130 134 138 147 140 145 147 145 148 149 153 155 158 161 163 162 173 181 170 224 194 189 187 232 254 286 296 302 297 288 331 333 343 349 347 347 339
126 180 181 157 161 144 130 136 133 140 140 142 147 151 151 152 153 156 155 160 165 170 179 176 181 184 222 214 226 193 223 235 340 304 329 360 339 348 342 335 326 331 341 331
62 123 96 135 136 146 145 140 140 138 140 146 151 152 152 152 156 156 156 158 160 166 162 170 185 205 248 197 236 211 197 346 291 261 277 320 314 331 334 336 337 339 349 354
89 83 110 116 124 132 134 139 142 144 145 148 149 152 153 151 155 156 156 158 162 165 183 182 187 214 216 182 258 222 233 280 263 22 0 359 355 330 337 333 334 336 327 335
106 111 109 125 130 132 136 136 139 139 145 150 149 150 149 152 152 155 159 163 164 165 173 197 211 224 205 211 183 254 316 3 196 314 280 332 346 358 342 334 332 325 320 330
110 126 127 130 131 134 136 141 141 143 146 140 146 147 148 150 155 160 159 156 146 150 162 207 214 213 219 240 220 227 318 309 298 311 284 318 337 333 324 322 331 342 331 348
132 132 134 134 141 143 143 149 148 149 148 149 150 153 155 155 156 154 150 154 160 165 158 228 149 174 257 268 221 220 255 207 29 357 302 308 320 324 342 2 343 342 331 15
140 140 141 143 150 156 151 155 154 155 157 156 155 155 156 156 152 149 157 146 158 154 177 205 235 215 217 236 189 225 218 265 276 291 302 298 303 326 330 322 329 337 307 308
146 143 144 164 162 155 154 157 158 159 159 158 156 157 159 160 158 153 148 157 160 164 203 292 136 135 190 243 293 223 222 238 276 290 288 284 283 298 316 336 331 324 319 356
150 145 160 164 159 159 159 159 159 160 160 160 160 162 164 164 159 166 168 183 171 162 195 168 113 166 206 232 285 247 261 252 253 271 308 301 292 284 332 319 326 339 1 8
158 154 156 154 156 159 159 160 159 160 161 162 162 161 160 161 158 164 171 185 189 195 221 209 263 309 295 311 312 204 239 275 241 260 300 311 315 336 324 325 338 4 10 358
154 152 152 154 156 157 160 160 161 160 163 165 165 166 168 163 167 171 180 190 194 210 207 235 254 263 299 254 234 248 277 238 239 284 307 313 314 349 351 350 356 1 1 358
151 151 154 155 154 155 158 162 163 162 164 166 167 167 164 165 174 185 186 203 205 227 232 240 233 238 266 197 202 42 262 237 268 331 28 2 358 356 358 356 349 352 346 352
152 155 155 156 156 155 157 161 163 165 167 168 169 169 169 170 181 180 187 198 209 203 169 227 255 282 158 150 116 277 149 102 36 27 33 4 8 359 4 352 348 351 340 345
154 155 155 156 157 155 157 163 164 165 167 171 174 176 174 170 175 188 189 205 206 175 170 247 276 170 164 154 57 166 158 116 111 29 24 16 338 5 2 348 322 355 342 341
153 154 156 157 156 158 161 162 161 164 167 171 174 178 174 187 197 191 219 203 207 187 180 20 160 175 165 41 20 214 156 147 317 297 292 310 338 334 326 328 324 319 306 332
154 155 159 161 158 162 163 164 166 168 171 176 186 200 197 198 211 208 174 183 188 174 196 245 61 179 191 309 283 355 222 293 311 232 280 269 306 308 345 346 344 338 326 332
154 156 159 156 161 162 165 166 169 172 177 179 182 194 200 183 182 184 182 180 184 186 220 246 219 262 239 241 267 263 253 258 242 229 261 309 274 252 285 299 329 337 342 338